Weather in Tsagan-Ola

Russia / Zabaykalsky Krai     51°21′31″N   115°28′37″E
temp.,
°C
wind,
m/s
gust,
m/s
humid.,
%
clouds,
%
prec.,
mm/h
press.,
hPa
HPBL,
m
6 may, thu
thu600:00+5nne226120 0.0 100110
03:00+4nnw227055 0.0 100310
06:00+3nw2274100 0.0 100516
09:00+7nnw4753100 0.0 1005717
12:00+11nnw5736100 0.0 10042446
15:00+12wnw563382 0.0 10022246
18:00+12nnw4734100 0.1 10022294
21:00+9nw3654100 0.3 1004379
7 may, fri
fri700:00+6wnw61253100 0.1 1004526
03:00+4wnw5963100 0.1 1003316
06:00+3wnw4763100 0.0 1002336
09:00+5nw4448100 0.0 1001876
12:00+7nnw4441100 0.0 10001505
15:00+6nne7772100 0.5 1001948
18:00+7ne356893 0.7 1002517
21:00+6nw226631 0.7 100320
8 may, sat
sat800:00+5n32665 0.0 100619
03:00+3n22672 0.0 100717
06:00+1nnw22745 0.0 100815
09:00+6nnw245390 0.0 1008479
12:00+10nnw4737100 0.1 10062519
15:00+12n4727100 0.1 10032689
18:00+12nne553392 0.0 10032046
21:00+9ese114286 0.0 100510
9 may, sun
sun900:00+6ne235541 0.0 100651
03:00+5n2258100 0.0 100628
06:00+4nnw2362100 0.0 100743
09:00+6n565195 0.0 1008665
12:00+9n453987 0.0 10072091
15:00+11n563399 0.0 10062329
18:00+12nne67275 0.0 10062671
21:00+7ene355868 0.0 1009122
10 may, mon
mon1000:00+5nnw226052 0.0 101012
03:00+4nnw226399 0.0 101118
06:00+3nnw226938 0.0 101216
09:00+7nne464965 0.0 10121027
12:00+11nne673671 0.0 10112197
15:00+12nne6832100 0.0 10102421
18:00+12nne683169 0.0 10102407
21:00+8ene344479 0.0 101177